Theta_e
318 317 317 315 313 313 313 314 315 315 316 318 318 319 319 319 317 317 317 315 315 315 315 315 313 312 311 311 310 310 310 309 309 308 308 308 307 306 306 305 304 304 303
319 318 318 317 315 313 314 314 314 314 316 317 318 318 319 319 318 318 317 316 315 314 314 315 314 313 311 311 310 310 309 309 308 307 307 306 306 305 305 304 303 302 302
321 320 319 319 318 316 314 315 315 315 316 316 317 317 318 318 318 318 317 316 315 314 313 314 315 314 313 311 311 310 309 308 308 307 306 305 305 305 304 303 302 301 300
324 322 322 323 321 318 315 314 315 315 315 315 315 316 316 317 318 319 318 317 316 315 313 312 314 314 314 313 312 310 310 309 308 307 306 305 304 304 303 302 301 300 299
327 325 325 325 324 322 318 316 314 314 314 314 315 315 315 315 317 318 319 318 316 315 314 312 312 312 312 313 313 312 310 309 308 307 306 305 304 303 302 301 300 299 298
327 326 326 326 325 323 321 319 316 314 313 314 314 313 314 315 315 316 318 318 317 315 314 313 312 312 311 312 313 312 312 311 309 308 306 305 304 303 302 301 300 299 298
328 326 326 327 326 325 326 324 319 316 313 313 311 311 312 313 312 313 314 316 318 317 315 313 312 311 311 311 311 312 312 312 311 309 307 305 304 303 302 301 300 299 298
330 329 328 327 326 325 325 325 323 317 314 313 311 306 310 311 312 313 313 313 314 314 315 315 313 311 310 310 310 311 312 313 312 311 309 306 305 304 303 301 300 299 298
331 331 330 329 329 328 326 327 325 320 315 316 312 311 303 307 304 310 312 312 312 312 313 313 312 311 310 309 310 309 309 310 312 312 311 308 306 304 303 302 300 299 298
330 331 332 331 329 328 327 325 326 324 318 312 309 308 311 310 307 307 307 310 309 309 310 308 311 311 310 310 309 309 308 308 308 309 310 309 308 305 304 302 300 298 297
329 330 330 330 330 329 329 326 324 324 321 317 314 311 308 305 302 301 309 310 308 311 311 308 306 306 308 309 309 308 307 307 307 306 307 306 307 306 304 302 300 298 297
328 328 328 327 327 327 327 326 326 326 324 320 317 314 311 307 303 302 301 304 306 308 308 309 309 309 307 305 307 307 308 307 306 306 305 303 304 304 304 301 300 298 296
326 326 326 325 325 325 325 324 323 323 322 320 319 315 313 311 310 307 304 306 303 307 305 305 306 308 307 307 307 306 304 305 305 304 304 302 302 302 301 300 298 296 295
320 319 319 320 320 320 320 321 320 319 319 318 318 316 314 313 311 309 308 306 306 307 304 303 305 306 308 307 308 306 303 301 301 302 302 302 302 301 299 297 295 294 293
311 311 311 312 312 312 313 314 315 316 316 316 315 315 314 313 311 310 309 308 308 310 310 309 304 306 306 306 306 304 302 301 298 297 300 301 301 299 295 294 294 293 293
307 308 308 308 308 309 309 310 311 312 312 313 313 312 312 311 311 310 309 308 306 306 307 307 307 306 305 305 306 303 302 298 297 293 296 299 299 295 293 292 293 293 292
306 306 306 306 306 306 307 307 308 309 309 310 311 311 310 310 309 308 308 307 305 304 304 305 305 304 303 303 303 303 300 297 294 292 293 297 295 292 292 292 292 290 290
306 305 306 305 305 305 305 305 306 306 307 306 307 308 308 308 308 307 307 306 305 304 303 303 303 302 301 300 299 297 294 292 290 290 290 292 292 291 291 291 290 289 288
304 305 303 303 303 303 303 303 304 304 304 305 305 306 306 306 306 305 305 305 304 304 302 301 301 298 296 295 292 289 289 288 287 287 288 289 290 290 290 289 288 287 288
302 302 303 303 302 302 302 301 301 301 302 302 302 302 304 304 305 305 304 304 304 302 300 299 298 296 292 290 289 288 285 285 286 286 286 288 289 288 289 288 287 287 287
299 299 300 301 301 301 301 301 301 300 299 299 300 301 302 303 303 304 303 302 301 300 298 296 296 291 288 286 286 286 285 284 284 284 285 286 286 287 287 287 286 287 286
297 297 297 297 298 299 299 299 299 300 298 298 298 299 300 300 300 300 300 299 299 298 296 294 294 292 288 287 287 285 284 283 283 283 283 284 285 286 286 285 284 284 285
294 294 294 294 295 296 296 297 298 298 298 298 298 297 297 297 298 297 297 296 296 295 295 294 292 291 290 289 287 284 284 284 284 283 283 283 284 284 283 283 284 284 283
292 292 292 293 293 294 294 295 295 295 295 296 296 295 294 294 294 293 292 292 292 292 292 291 291 290 289 288 286 285 284 284 284 282 284 284 282 282 283 282 282 282 281
291 291 291 291 291 292 292 292 292 292 293 293 293 292 292 291 291 289 289 289 289 289 289 289 288 288 287 286 286 285 284 284 283 282 283 283 281 280 280 280 281 280 278
290 289 290 290 290 290 290 291 290 289 289 290 290 289 288 287 287 288 288 288 287 286 287 286 286 286 285 285 286 287 286 285 283 283 283 283 280 280 277 278 278 278 276
Wind_Speed
12 12 10 10 9 9 8 8 7 6 5 5 5 7 9 10 9 11 12 11 9 9 10 8 7 7 7 7 7 8 8 9 9 9 9 9 9 9 9 9 8 8 8
14 13 12 11 11 10 10 9 8 7 7 7 8 9 11 13 13 14 15 15 14 12 12 13 11 11 10 10 10 10 10 10 10 10 9 9 9 9 8 7 7 6 6
16 14 13 13 12 13 14 14 14 14 13 12 13 13 14 15 17 18 19 20 19 17 16 15 16 16 15 14 13 12 12 12 12 12 11 11 11 10 9 8 7 5 4
18 17 15 14 15 16 17 17 17 17 16 16 15 15 17 18 20 22 24 24 24 23 22 20 19 18 17 17 17 17 16 16 16 16 15 14 13 12 11 10 8 7 5
20 20 20 19 19 20 21 21 22 21 21 21 19 19 19 21 22 23 27 29 29 29 29 27 24 25 23 22 21 20 19 20 20 19 18 18 16 15 14 12 10 9 7
25 26 24 23 25 25 25 25 27 25 25 24 21 22 23 25 26 28 31 33 34 33 32 31 29 31 29 27 26 24 24 23 23 22 21 20 19 18 17 15 13 11 10
27 27 30 29 29 31 31 30 29 29 28 25 19 22 28 29 31 33 34 36 38 38 37 37 36 36 37 35 33 30 30 28 27 27 25 24 22 21 20 18 16 14 12
29 29 30 31 31 33 34 34 33 31 30 30 15 9 4 10 25 37 40 42 43 42 42 42 42 40 41 41 41 39 34 33 31 30 29 28 26 24 23 21 19 17 15
33 33 31 32 33 33 35 36 37 37 29 34 33 14 2 6 4 14 27 37 42 46 48 47 47 46 44 44 45 45 44 40 34 31 31 30 29 27 26 24 21 19 18
29 32 35 34 35 34 35 37 37 37 33 27 27 37 36 19 4 3 14 23 27 37 44 49 50 49 48 47 48 48 49 47 42 37 32 31 33 31 28 26 23 21 20
23 27 31 33 34 35 35 35 35 35 36 31 34 21 29 28 26 12 10 14 21 30 34 37 43 48 51 51 51 52 51 51 49 48 44 35 29 30 30 28 24 23 22
22 22 24 27 30 32 35 35 36 37 37 38 35 33 28 14 13 18 12 21 23 25 33 36 38 40 44 47 50 55 56 54 52 50 50 43 38 33 30 27 25 24 23
21 21 21 24 26 28 31 31 33 35 36 39 38 36 37 35 31 24 21 18 13 18 20 28 37 39 41 44 45 47 54 57 55 52 49 46 46 37 33 30 25 24 23
18 17 18 20 23 25 27 30 31 35 36 39 39 38 36 37 34 32 26 16 9 16 19 22 27 31 35 38 40 42 46 49 54 51 46 43 41 36 33 28 24 24 24
14 15 17 18 20 22 24 26 28 32 34 36 38 38 40 35 35 35 34 29 23 14 16 22 21 21 26 33 36 38 40 43 44 42 46 42 38 34 30 25 23 24 23
13 15 16 19 20 21 23 25 29 31 32 34 35 35 37 35 36 35 36 34 31 29 16 21 21 24 22 25 30 33 36 38 37 36 41 42 35 29 26 23 24 22 19
15 16 17 20 22 23 23 25 29 32 30 32 32 34 36 35 34 32 33 34 32 29 23 33 30 30 28 30 31 33 33 34 35 33 31 34 31 27 24 22 21 19 14
19 20 20 21 22 23 23 24 27 29 32 32 32 32 33 31 35 33 32 33 34 33 31 30 28 28 26 26 28 29 29 29 29 28 23 29 28 28 24 23 22 17 15
23 23 22 23 23 23 24 24 26 28 29 30 31 33 34 33 34 32 34 33 31 34 32 30 28 20 19 21 20 21 22 23 23 22 19 26 27 25 25 23 19 16 18
26 26 27 27 27 27 27 27 27 27 27 29 29 30 33 34 36 35 35 35 35 32 29 27 25 21 20 19 19 17 15 20 20 20 18 25 26 22 23 21 19 16 18
26 26 27 28 28 28 28 28 28 29 29 30 30 31 32 33 36 36 35 31 31 30 25 22 20 16 14 11 15 17 17 17 15 17 19 23 22 23 22 17 16 18 20
27 27 26 27 28 28 27 25 26 29 29 30 30 30 30 30 31 31 30 30 31 28 27 22 20 15 14 14 16 16 13 9 4 15 17 17 24 23 23 21 21 22 22
29 28 28 27 27 27 24 22 21 24 24 25 26 28 28 26 25 26 27 27 28 27 28 25 20 18 15 19 17 17 15 11 4 13 18 12 18 17 18 19 20 15 12
32 32 31 29 28 26 22 22 22 24 24 24 24 24 24 24 23 22 23 24 23 20 19 18 15 15 15 10 13 16 18 15 9 14 17 5 16 12 15 12 12 12 12
33 32 30 28 26 26 20 21 23 24 26 26 24 23 23 22 20 16 17 17 13 9 8 7 7 6 5 7 13 16 19 16 5 5 14 5 8 10 10 11 12 12 12
34 34 33 29 26 27 22 23 22 22 23 24 23 20 17 16 14 12 11 10 8 7 9 12 13 14 15 14 14 13 19 12 7 3 9 6 10 7 3 7 13 17 10
Wind_Direction
200 196 194 194 197 194 190 190 193 197 201 206 204 198 199 201 211 223 219 218 226 210 192 198 211 212 204 203 195 190 186 180 176 174 171 166 160 156 151 146 137 127 116
213 211 209 208 212 213 208 203 213 217 220 223 227 225 219 222 224 232 228 225 226 228 212 200 211 219 220 216 212 209 205 199 195 192 188 185 181 176 169 162 151 140 127
222 222 221 222 224 225 221 219 212 217 224 229 233 235 235 232 231 230 231 230 228 231 243 223 210 216 220 222 221 220 217 215 210 208 204 202 199 196 190 182 174 164 151
229 229 231 242 240 236 231 234 235 235 237 240 240 243 240 239 238 234 235 233 235 235 234 239 223 215 227 227 226 225 222 221 217 217 213 212 209 209 205 200 197 191 187
233 238 240 239 243 240 238 237 239 241 244 245 246 249 252 254 249 243 239 238 238 237 234 231 234 233 229 229 235 232 230 228 224 221 220 219 216 216 217 214 211 214 215
228 234 241 242 242 242 242 242 243 240 243 248 251 255 255 254 250 248 246 244 241 239 239 236 234 234 235 230 231 236 232 233 231 227 225 223 224 222 222 220 221 223 228
239 241 243 244 244 243 247 246 244 244 245 246 246 256 255 256 254 253 251 248 246 244 244 243 242 237 238 237 231 236 238 235 232 228 223 226 226 227 227 227 228 230 232
245 244 245 249 251 248 248 247 246 242 245 244 229 232 282 268 248 252 251 250 250 249 247 246 246 245 239 239 240 234 237 241 237 231 225 224 227 226 226 231 232 234 238
250 252 252 251 253 252 252 253 250 243 237 242 237 221 188 237 320 252 249 251 252 252 253 250 248 247 245 241 241 241 237 238 242 237 230 224 224 227 228 229 231 236 240
254 255 261 260 257 258 256 258 257 252 241 239 241 236 240 248 252 304 249 250 251 252 255 255 253 251 249 246 243 242 240 239 236 237 236 232 225 225 226 230 230 235 240
263 257 257 262 262 261 263 259 258 252 252 237 239 239 240 241 250 246 277 256 255 257 259 260 261 262 256 251 248 246 244 242 238 236 231 235 233 226 227 226 229 236 238
269 266 263 261 261 262 264 264 261 259 258 253 244 240 232 221 218 225 239 258 256 260 259 260 260 265 266 260 256 253 251 248 241 235 234 234 229 231 225 223 228 235 238
277 278 275 271 268 265 264 264 262 261 261 256 253 246 246 239 242 242 232 257 255 272 267 259 261 263 264 264 265 263 257 252 248 241 236 232 230 228 227 224 225 236 242
291 289 281 275 272 272 269 267 267 266 266 261 258 253 248 250 246 239 242 244 269 263 270 255 264 257 265 266 270 268 263 261 253 245 238 235 229 224 220 217 221 236 241
302 299 294 288 282 277 273 269 263 262 263 265 262 260 257 253 253 247 247 243 249 280 277 278 258 260 256 259 266 266 265 263 261 242 241 236 225 218 216 219 221 231 236
312 304 297 291 287 283 280 276 271 265 261 262 261 258 257 255 253 252 249 248 241 250 276 271 276 274 266 261 271 266 266 264 262 247 240 236 220 215 214 215 220 227 228
331 321 313 303 295 291 287 281 277 275 264 260 259 260 260 259 254 250 249 248 241 239 254 273 274 273 265 267 262 263 262 260 259 253 238 228 216 215 216 215 216 214 220
343 335 328 316 309 304 298 290 284 279 275 266 263 261 259 258 256 255 252 246 244 240 243 264 267 263 260 260 259 258 257 258 256 255 239 223 217 214 211 213 212 209 230
343 338 330 326 320 314 305 297 289 284 278 271 267 264 264 264 261 257 251 250 249 248 245 252 266 267 257 252 251 252 253 253 251 247 235 222 219 208 210 208 204 223 232
338 333 332 328 324 319 313 309 302 292 278 274 273 267 270 265 267 262 259 257 257 251 248 247 255 253 249 252 244 237 223 234 235 237 226 211 202 212 213 205 214 222 241
334 331 328 323 320 317 315 313 307 301 296 290 286 284 281 277 275 274 268 262 260 255 249 244 247 237 224 210 209 221 213 209 209 213 209 213 216 208 195 201 219 211 232
336 333 330 326 321 318 317 312 306 303 300 296 293 290 286 283 278 275 271 269 267 259 248 239 245 238 232 227 231 204 178 153 171 212 196 191 202 196 209 216 229 240 253
339 337 333 329 322 319 318 312 306 298 294 289 289 291 290 285 282 279 277 274 269 264 260 255 242 238 234 244 229 183 186 174 171 175 166 165 194 208 219 226 240 241 224
334 333 331 329 322 319 314 310 308 301 294 290 286 284 281 283 281 280 280 279 275 268 249 243 248 256 258 259 229 198 169 140 129 160 171 132 191 198 216 218 199 208 205
329 328 326 324 317 314 313 307 304 296 293 291 288 283 280 278 279 272 269 272 269 241 228 224 223 231 233 187 178 161 144 136 126 169 182 131 153 150 166 178 188 183 194
324 323 322 322 316 311 309 303 298 296 291 294 294 290 289 287 286 274 252 247 199 163 137 123 118 119 126 131 137 148 157 150 116 119 187 152 152 149 142 184 170 179 193